User: anonymous   Login
Location: Unspecified
(0.0000°N, 0.0000°E)
Time: 17:47:07
(UTC+00:00)
Language:

GONETS M 08 (M18) - Orbit

View from above orbital plane
View from above orbital plane
View from above satellite
View from above satellite

Ground track
Ground track

The orbit data is extracted from the following two-line orbital elements,

1 40061U 14036A   18049.67414992 +.00000023 +00000-0 +95830-4 0  9993
2 40061 082.5099 036.0039 0028016 304.5103 055.3326 12.42876755164743
Epoch (UTC): 18 February 2018 16:10:46
Eccentricity: 0.0028016
inclination: 82.5099°
perigee height: 1472 km
apogee height: 1516 km
right ascension of ascending node: 36.0039°
argument of perigee: 304.5103°
revolutions per day: 12.42876755
mean anomaly at epoch: 55.3326°
orbit number at epoch: 16474

The dashed part of the orbit path shows where the satellite is in the earth's shadow,  

DLR